Fallon, NV

10:43 AM PST on January 17, 2017 (GMT -0800)
Fallon Naval Air Station

Weather History for KNFL - April, 2013

Change the Weather History Date:

Tuesday, April 2, 2013

  Actual Average Record
Temperature  
Mean Temperature 50 °F -  
Max Temperature 66 °F 61 °F 86 °F (1966)
Min Temperature 33 °F 30 °F 18 °F (1963)
Degree Days  
Heating Degree Days 16    
Moisture  
Dew Point 31 °F    
Average Humidity 55    
Maximum Humidity 89    
Minimum Humidity 25    
Precipitation  
Precipitation 0.00 in - - ()
Sea Level Pressure  
Sea Level Pressure 30.03 in    
Wind  
Wind Speed 3 mph (SSW)    
Max Wind Speed 8 mph    
Max Gust Speed -    
Visibility 10 miles    
Events      
Averages and records for this station are not official NWS values.
T = Trace of Precipitation, MM = Missing Value Source: NWS Daily Summary

Daily Weather History Graph

Daily Weather History Graph

Search for Another Location

Airport or City:

Trip Planner

Search our weather history database for the weather conditions in past years. The results will help you decide how hot, cold, wet, or windy it might be!

Date:

Astronomy

Apr. 02, 2013 Rise Set
Actual Time 6:37 AM PDT 7:20 PM PDT
Civil Twilight 6:09 AM PDT 7:47 PM PDT
Nautical Twilight 5:37 AM PDT 8:19 PM PDT
Astronomical Twilight 5:04 AM PDT 8:52 PM PDT
Moon 1:27 AM PDT (4/2) 11:34 AM PDT (4/2)
Length of Visible Light 13h 37m
Length of Day
12h 43m
Waning Gibbous, 55% of the Moon is Illuminated
Apr 2
Waning Gibbous
Apr 2
Last Quarter
Apr 10
New
Apr 18
First Quarter
Apr 25
Full

Hourly Weather History & Observations

Time (PDT) Temp. Windchill Dew Point Humidity Pressure Visibility Wind Dir Wind Speed Gust Speed Precip Events Conditions
12:56 AM 39.0 °F - 32.0 °F 76% 30.03 in 10.0 mi Calm Calm - N/A   Clear
1:56 AM 42.1 °F 37.7 °F 34.0 °F 73% 30.03 in 10.0 mi WSW 6.9 mph - N/A   Clear
2:56 AM 37.0 °F 34.5 °F 32.0 °F 82% 30.03 in 10.0 mi South 3.5 mph - N/A   Clear
3:56 AM 36.0 °F 30.3 °F 30.9 °F 82% 30.03 in 10.0 mi SSW 6.9 mph - N/A   Clear
4:56 AM 35.1 °F 29.3 °F 30.9 °F 85% 30.04 in 10.0 mi SSE 6.9 mph - N/A   Clear
5:56 AM 33.1 °F 27.7 °F 30.0 °F 89% 30.05 in 10.0 mi South 5.8 mph - N/A   Clear
6:19 AM 33.8 °F 27.0 °F 30.2 °F 87% 30.16 in 10.0 mi South 8.1 mph - N/A   Partly Cloudy
6:56 AM 33.1 °F 27.7 °F 30.0 °F 89% 30.06 in 10.0 mi South 5.8 mph - N/A   Scattered Clouds
7:56 AM 39.9 °F 36.7 °F 33.1 °F 77% 30.07 in 10.0 mi South 4.6 mph - N/A   Scattered Clouds
8:56 AM 46.9 °F - 35.1 °F 63% 30.08 in 10.0 mi Calm Calm - N/A   Scattered Clouds
9:56 AM 52.0 °F - 35.1 °F 53% 30.08 in 10.0 mi Calm Calm - N/A   Scattered Clouds
10:56 AM 55.0 °F - 35.1 °F 47% 30.08 in 10.0 mi Variable 3.5 mph - N/A   Scattered Clouds
11:56 AM 59.0 °F - 34.0 °F 39% 30.07 in 10.0 mi Calm Calm - N/A   Scattered Clouds
12:56 PM 61.0 °F - 33.1 °F 35% 30.05 in 10.0 mi Variable 3.5 mph - N/A   Scattered Clouds
1:56 PM 61.0 °F - 32.0 °F 34% 30.03 in 10.0 mi Calm Calm - N/A   Scattered Clouds
2:56 PM 64.0 °F - 32.0 °F 30% 30.01 in 10.0 mi Calm Calm - N/A   Scattered Clouds
3:56 PM 64.0 °F - 30.9 °F 29% 30.00 in 10.0 mi SW 5.8 mph - N/A   Scattered Clouds
4:56 PM 64.9 °F - 30.9 °F 28% 29.98 in 10.0 mi Calm Calm - N/A   Scattered Clouds
5:56 PM 66.9 °F - 30.0 °F 25% 29.97 in 10.0 mi Calm Calm - N/A   Scattered Clouds
6:56 PM 64.9 °F - 28.9 °F 26% 29.98 in 10.0 mi NW 5.8 mph - N/A   Scattered Clouds
7:56 PM 59.0 °F - 30.0 °F 33% 29.98 in 10.0 mi West 4.6 mph - N/A   Partly Cloudy
8:56 PM 53.1 °F - 28.9 °F 40% 30.00 in 10.0 mi NW 4.6 mph - N/A   Clear
9:56 PM 50.0 °F - 28.9 °F 44% 30.01 in 10.0 mi Calm Calm - N/A   Clear
10:56 PM 46.9 °F - 28.0 °F 48% 30.01 in 10.0 mi SSW 4.6 mph - N/A   Clear
11:56 PM 45.0 °F 42.6 °F 27.0 °F 49% 30.02 in 10.0 mi SW 4.6 mph - N/A   Clear